Theta_e
306 307 317 324 321 327 324 324 325 327 328 326 326 327 327 326 327 329 336 336 338 338 342 344 340 337 337 337 337 338 338 338 338 338 337 337 335 335 333 330 331 333 334 331 334 332 336 335 334
305 312 320 321 317 316 319 321 326 325 324 326 327 327 327 328 328 329 335 337 337 338 342 344 341 337 335 336 337 338 338 338 338 337 337 335 333 334 332 331 332 332 334 332 333 336 335 333 329
305 316 316 316 316 314 313 315 319 321 324 325 326 327 328 329 333 334 333 334 337 338 342 344 341 337 336 336 337 338 338 338 337 336 334 334 334 332 331 330 329 330 331 331 331 335 333 330 327
309 315 315 314 312 314 314 317 322 322 321 323 324 325 324 319 321 317 327 336 337 338 341 344 341 337 335 336 337 337 337 337 336 335 334 334 334 332 330 329 328 329 330 331 332 332 332 331 327
310 315 310 312 310 311 315 316 317 318 320 322 323 324 325 321 314 314 326 335 337 339 341 344 341 337 336 336 336 336 337 337 336 335 333 333 333 330 329 329 329 328 329 330 330 331 331 330 328
306 313 309 307 307 309 312 313 314 315 316 318 319 319 321 324 312 311 320 333 337 338 342 343 341 339 336 336 336 336 336 335 335 333 332 332 332 330 330 329 328 328 329 329 329 329 329 329 327
304 308 306 307 308 307 309 308 311 311 311 312 311 314 317 322 310 310 313 331 338 339 341 343 342 340 337 335 335 336 336 335 335 333 332 331 331 329 329 328 328 328 329 329 329 328 329 328 326
305 306 304 305 304 304 308 307 307 307 309 308 310 315 316 311 308 308 312 313 332 338 340 341 341 341 340 337 332 335 335 335 334 333 332 331 330 329 328 328 328 329 328 328 328 328 328 327 326
304 302 302 302 302 302 305 305 305 305 305 305 307 308 308 306 307 308 309 311 308 325 334 339 341 340 340 339 335 335 336 334 334 334 332 331 330 329 327 326 327 327 328 328 328 328 327 326 326
303 302 300 302 302 302 303 304 303 303 303 304 304 304 305 307 307 307 308 309 309 307 318 323 337 340 340 339 337 335 336 335 336 335 332 330 329 328 326 326 325 326 327 327 329 328 327 326 330
302 301 301 302 302 302 302 301 301 301 301 301 302 303 303 303 302 304 307 307 308 307 308 310 326 338 339 338 337 337 336 336 335 334 333 330 329 327 326 325 325 326 327 329 329 329 328 327 329
301 301 301 301 301 302 301 300 300 301 301 301 302 302 302 302 302 303 304 305 307 307 306 306 314 328 337 337 336 336 335 335 334 332 332 331 328 326 325 325 324 326 328 330 331 329 328 327 327
301 300 300 301 301 301 300 301 301 301 301 301 301 301 301 301 301 301 301 303 306 306 306 305 306 310 332 336 335 334 334 334 332 331 331 330 327 326 325 325 323 327 329 331 330 329 328 327 326
300 300 300 301 301 301 301 301 300 300 301 301 301 301 301 301 301 301 302 304 304 304 303 302 306 305 313 333 334 333 333 331 331 330 330 328 327 325 325 324 324 326 329 330 330 328 327 326 325
301 302 301 301 301 301 301 301 301 301 301 301 301 301 301 301 301 302 302 302 302 303 303 303 304 307 311 315 334 333 331 330 330 329 329 327 326 325 325 324 322 326 327 327 328 327 325 325 325
301 301 302 301 301 301 301 302 302 302 301 301 301 301 302 301 301 301 302 302 302 303 304 303 304 307 319 326 330 332 331 329 328 328 327 326 325 325 324 323 323 325 326 326 327 325 324 324 324
302 302 301 301 301 301 301 302 302 301 301 301 301 302 302 302 302 302 302 302 303 303 304 304 304 305 315 326 329 330 330 328 327 327 326 325 324 324 324 323 323 324 325 325 325 325 324 323 322
302 302 301 301 301 301 301 302 301 302 302 302 302 302 302 302 302 302 302 302 303 302 303 304 305 308 321 326 329 330 327 327 326 326 326 325 324 324 323 322 322 324 324 325 325 324 323 322 322
300 302 302 301 301 301 302 302 302 302 302 302 302 302 302 302 302 301 301 302 302 302 303 309 313 312 323 328 328 327 326 326 324 324 324 324 324 323 323 322 322 324 323 323 323 323 322 320 320
301 302 302 301 301 301 301 302 302 301 300 300 301 301 302 302 302 302 301 301 302 303 303 310 319 318 328 328 328 326 325 324 324 324 324 324 324 323 322 322 321 322 323 322 323 323 321 320 317
299 300 301 302 300 300 300 303 301 301 299 297 296 296 298 300 301 301 302 302 302 303 304 315 323 324 328 328 327 327 326 325 325 324 323 323 323 323 323 322 322 322 322 321 322 322 322 320 317
299 298 296 297 300 301 301 304 300 298 297 295 294 294 295 296 298 300 301 302 302 302 304 314 321 327 328 327 327 326 326 325 325 324 324 323 323 322 322 322 322 322 322 322 321 321 322 322 319
298 296 296 296 299 302 302 305 299 295 294 292 292 292 292 294 296 298 300 301 301 301 302 314 323 327 328 327 326 326 325 325 324 324 324 323 323 323 323 322 322 322 323 323 322 320 320 320 320
295 294 297 303 303 305 305 304 297 294 292 291 289 289 291 294 295 297 299 299 301 302 304 317 323 325 325 325 325 326 326 325 324 324 323 323 323 323 323 323 322 322 322 322 322 322 320 319 318
295 295 299 302 304 307 303 304 297 292 289 289 287 288 300 296 297 299 300 300 301 302 315 320 317 311 311 319 318 315 315 316 314 319 322 320 315 315 316 320 320 320 318 318 317 314 312 309 309
294 293 295 297 300 301 302 298 299 289 288 287 285 298 301 300 300 302 304 307 309 312 313 310 307 303 302 305 303 310 307 299 297 300 299 300 300 299 302 305 304 305 307 305 304 302 299 298 295
293 293 292 293 296 300 300 294 294 288 286 285 283 297 300 301 302 303 304 305 306 306 306 303 301 299 298 297 297 297 300 297 294 293 294 294 295 295 295 298 298 296 297 297 296 294 293 293 293
291 290 293 294 297 299 300 293 289 285 283 282 282 288 296 297 298 299 299 299 300 299 297 296 295 294 293 293 292 292 292 292 292 293 292 291 291 294 293 292 294 293 292 292 292 291 289 289 286
292 290 291 291 293 296 298 295 285 283 282 281 282 286 293 294 295 296 296 295 295 294 293 292 291 291 290 290 289 289 289 290 288 289 290 289 290 291 290 289 291 290 289 288 287 285 285 284 283
291 290 289 294 292 291 293 294 284 282 281 281 281 284 289 290 292 292 292 291 291 291 290 289 289 288 288 287 286 286 286 287 285 285 286 286 285 285 284 285 284 284 283 282 282 281 280 279 279
Wind_Speed
14 9 3 5 6 7 17 12 17 10 10 11 3 5 5 11 8 0 3 4 6 12 28 34 37 35 35 34 33 34 35 33 29 29 27 24 24 23 22 22 18 17 17 17 17 18 16 16 16
11 4 4 3 9 15 17 17 16 16 13 2 6 9 9 11 5 8 6 9 6 11 27 33 37 36 36 36 34 35 35 34 32 29 28 25 25 23 21 21 21 20 15 17 15 16 17 15 14
5 3 4 4 10 21 16 11 14 16 13 14 7 6 5 3 4 10 16 18 8 12 24 31 37 36 36 36 37 36 35 35 33 29 28 28 26 24 23 22 23 19 17 17 17 14 14 16 15
3 5 4 9 21 12 15 5 1 5 6 6 11 11 9 10 4 15 21 17 8 13 24 29 37 35 35 37 36 35 36 34 32 31 29 27 26 27 25 23 23 21 18 17 16 15 13 14 15
1 3 7 11 19 16 9 7 7 12 6 7 2 9 6 4 12 18 23 15 9 13 24 27 38 36 35 38 37 36 35 35 33 32 29 28 27 28 26 25 25 24 21 18 17 15 15 14 13
3 3 9 15 19 11 7 6 8 11 13 10 11 10 11 4 20 23 23 15 10 13 22 29 38 37 36 36 38 36 36 35 33 32 30 27 28 28 26 24 24 24 23 20 18 17 16 15 13
3 5 13 15 16 14 11 5 6 6 9 13 9 10 6 3 21 21 21 16 10 13 19 28 39 38 37 36 37 37 37 35 35 33 31 29 28 26 25 24 25 23 23 21 19 18 17 17 16
2 4 12 12 17 20 1 4 1 4 7 9 3 7 10 13 22 21 18 19 14 14 19 26 33 33 34 36 37 37 37 35 34 33 32 29 28 27 25 24 24 22 22 22 20 19 19 17 16
1 6 12 21 17 16 2 6 4 4 11 13 10 13 12 23 18 21 20 19 24 18 15 24 29 29 34 38 39 38 37 35 34 33 31 28 28 27 25 24 23 23 22 21 21 19 17 16 15
5 6 13 9 11 13 11 12 12 10 15 17 18 22 16 15 21 20 18 19 17 22 22 18 29 28 32 35 37 38 35 33 30 29 29 28 24 26 25 25 22 23 21 20 20 19 17 16 13
4 12 14 14 13 14 17 19 17 18 25 16 19 19 20 19 23 25 20 18 17 18 20 27 14 28 33 31 35 32 32 30 29 28 28 24 24 28 28 23 24 23 21 18 19 17 16 16 15
9 15 15 15 13 13 19 20 20 19 21 20 21 22 23 22 16 21 25 22 17 17 21 23 24 13 29 33 32 35 30 31 29 29 28 25 26 30 26 25 23 22 20 18 18 17 16 16 15
16 15 14 15 18 21 18 20 25 23 21 22 23 22 24 23 19 24 29 23 18 18 21 27 22 24 18 29 33 34 33 29 29 28 28 25 24 30 30 26 26 20 17 17 17 15 15 15 15
4 6 12 14 20 22 24 24 22 21 22 22 21 23 22 22 17 21 26 24 22 21 24 25 24 25 22 23 32 31 34 31 29 29 29 26 27 32 31 29 23 20 15 14 14 14 14 13 14
10 15 16 19 22 15 11 16 16 16 14 16 18 18 19 20 20 19 24 25 23 21 21 24 24 23 22 24 33 31 32 32 31 30 29 27 28 33 32 30 27 20 16 19 13 13 12 12 12
12 11 8 1 8 11 5 18 19 17 17 19 18 18 17 14 15 15 20 24 22 21 19 23 24 23 23 22 29 35 37 32 31 30 29 28 28 34 33 29 27 19 17 21 15 13 12 12 13
6 10 14 17 5 11 12 16 13 11 16 20 18 16 15 14 15 19 19 22 20 18 17 20 24 22 23 20 17 27 36 39 32 31 28 27 32 33 33 29 24 21 18 23 17 14 14 13 12
14 19 19 19 7 11 19 26 27 22 19 21 21 20 19 18 20 19 20 21 18 16 19 19 21 22 20 22 20 26 31 32 30 31 27 27 27 34 32 28 25 21 21 19 23 17 14 14 13
15 16 21 23 19 14 17 20 23 20 16 17 18 18 19 20 19 18 20 20 17 15 16 18 18 23 19 21 26 23 20 30 24 26 24 26 25 28 32 26 25 22 23 20 25 23 19 15 12
17 20 23 14 3 13 16 21 17 11 14 14 11 13 15 16 16 15 18 18 16 16 16 16 17 20 18 21 23 23 28 26 29 30 24 23 25 24 28 27 27 26 23 22 21 28 19 16 18
18 19 17 16 20 20 18 12 6 5 9 15 16 13 13 12 14 14 14 14 11 18 14 13 14 19 15 24 26 23 22 22 28 32 30 27 24 27 28 28 27 26 25 23 23 21 20 15 19
18 12 24 24 15 6 3 3 11 15 14 21 21 19 17 16 14 13 13 13 11 16 14 8 9 17 19 23 26 23 24 19 21 27 29 28 30 29 31 28 26 24 25 25 24 23 24 21 16
14 28 24 22 15 10 7 6 5 16 25 29 28 26 23 18 15 14 12 13 12 14 13 7 9 14 18 22 19 24 17 20 19 23 26 25 27 27 29 28 26 25 23 22 21 23 27 26 22
23 21 13 2 4 3 1 3 5 11 23 28 28 29 25 18 12 11 13 13 10 11 10 9 6 13 8 14 11 11 18 16 18 26 23 21 22 26 28 27 25 22 26 27 26 24 26 23 19
18 19 5 3 3 5 11 3 6 19 26 21 28 31 11 5 6 5 4 1 4 5 4 13 17 28 23 25 22 18 20 24 17 4 18 13 12 9 8 16 17 15 11 11 12 10 5 3 5
18 10 4 4 5 5 7 8 3 23 22 20 26 17 13 9 7 7 8 6 4 2 19 21 25 33 29 34 30 29 27 31 30 30 30 30 27 24 23 23 24 22 21 19 20 22 22 22 22
12 12 7 4 6 3 4 7 2 28 31 32 28 21 18 17 14 13 13 16 20 28 20 28 36 37 34 36 31 37 39 38 39 36 36 34 37 36 34 34 35 33 33 31 31 35 35 32 32
9 11 2 3 6 5 5 5 10 27 27 30 30 26 21 19 17 15 15 19 24 27 27 35 39 39 34 37 35 34 40 48 44 46 44 38 39 45 40 45 45 40 40 37 40 37 33 34 32
14 9 4 1 4 3 5 4 9 17 18 23 24 23 20 19 16 15 14 22 26 28 32 33 39 39 37 39 36 35 39 54 43 47 49 42 44 48 43 44 45 43 39 39 40 38 36 38 34
22 12 5 3 5 4 3 4 13 16 17 18 21 21 20 19 16 15 17 23 27 32 34 38 33 39 37 37 38 37 42 51 42 46 46 43 45 42 42 45 45 43 40 39 40 39 36 36 35
Wind_Direction
328 316 273 210 231 234 245 232 229 224 229 227 209 216 250 240 234 217 23 306 277 211 184 184 185 175 175 175 175 175 174 174 171 164 162 162 161 162 158 156 165 159 155 156 153 153 157 149 147
326 320 219 204 241 237 241 230 232 239 232 156 238 248 238 256 268 297 8 353 293 209 187 182 186 178 175 175 176 176 174 174 172 169 165 163 163 165 164 161 170 167 163 160 166 157 153 152 147
316 270 223 223 239 239 256 220 240 242 255 265 262 250 281 250 54 356 336 320 283 196 189 184 186 180 176 176 176 176 176 175 173 172 168 168 168 169 168 164 168 167 171 170 171 165 160 157 155
334 196 224 238 241 246 275 182 135 230 250 257 254 262 242 55 21 346 332 330 261 204 193 189 187 182 180 178 180 179 177 178 176 172 173 176 174 172 171 167 166 171 171 173 171 171 166 164 162
291 250 246 243 256 258 249 265 269 259 270 253 243 251 238 99 9 355 348 331 275 215 193 192 187 187 185 183 183 183 181 179 177 178 178 182 177 176 175 170 173 171 171 175 175 173 172 175 171
232 285 244 256 261 246 266 305 265 253 261 275 273 276 261 117 10 354 350 333 281 225 197 194 190 190 190 187 187 185 185 184 184 185 183 185 177 179 177 175 174 174 172 178 178 177 182 180 173
256 241 261 283 277 266 253 318 264 270 266 268 314 256 255 222 351 351 349 341 284 229 202 197 193 194 195 194 191 189 187 186 186 186 184 183 182 180 181 179 178 179 175 179 184 185 187 185 176
305 272 252 247 263 272 279 306 297 299 274 320 275 263 263 332 335 338 342 351 337 250 211 206 197 193 192 198 196 192 190 188 188 187 185 183 183 184 183 184 179 179 186 182 185 192 194 189 186
169 245 258 259 274 276 299 284 281 288 275 282 265 277 292 306 319 327 330 338 342 330 266 215 207 202 194 198 198 195 193 189 189 186 187 185 184 185 187 187 187 185 187 185 188 192 199 192 193
224 246 267 310 283 289 298 290 298 281 274 262 268 279 278 286 305 311 315 317 327 330 319 327 225 212 198 195 197 195 193 189 186 184 186 185 187 185 189 190 191 191 190 195 191 192 197 188 189
199 244 269 263 266 280 283 274 275 269 265 274 276 283 291 291 298 296 291 299 301 309 314 310 303 215 203 194 191 191 187 186 187 186 187 190 182 190 192 192 193 195 193 196 196 192 191 193 196
249 242 252 265 270 264 266 288 272 261 276 292 286 282 284 286 280 282 286 291 288 293 305 309 292 281 208 201 188 190 183 188 188 189 190 189 186 191 188 190 196 195 197 199 195 193 194 198 199
250 263 268 272 269 267 277 262 265 274 284 274 269 270 274 278 276 273 277 278 276 281 291 298 296 297 231 201 193 186 184 192 191 193 192 191 190 188 192 191 201 201 201 204 190 193 197 198 201
278 269 278 274 268 273 274 274 276 272 265 270 267 267 265 265 269 268 270 271 274 277 281 292 291 284 293 224 196 187 187 191 189 195 196 194 193 194 192 194 202 208 210 204 196 197 200 204 204
281 282 278 268 267 275 289 266 248 266 272 273 272 271 266 264 267 258 268 275 279 280 278 278 282 285 281 279 203 193 185 188 186 194 196 194 193 196 196 198 201 212 211 207 199 203 205 206 209
280 273 285 166 286 271 255 277 271 277 272 271 272 269 265 260 262 259 270 274 277 280 272 279 279 274 269 263 230 191 188 190 186 193 196 191 193 203 199 200 205 212 211 214 201 205 208 212 212
227 295 301 303 294 273 247 283 278 284 274 280 275 275 264 252 259 275 272 271 276 285 281 275 269 264 277 270 242 190 189 190 191 190 199 192 199 204 204 199 207 211 213 217 208 207 212 214 216
310 304 295 289 271 285 274 275 283 283 277 273 269 267 262 264 275 284 275 272 274 280 283 281 276 252 254 248 221 206 195 187 188 188 199 195 197 208 206 202 206 210 212 215 219 214 216 217 219
294 284 284 282 289 285 282 286 291 302 294 280 271 266 263 268 276 280 275 277 276 276 276 283 243 245 247 223 195 194 189 193 179 184 195 201 200 203 207 203 207 212 210 213 217 218 217 218 212
287 296 292 287 274 294 294 293 307 28 36 17 347 308 276 273 274 271 272 276 274 274 277 276 238 243 227 202 179 175 180 176 183 194 192 206 201 204 206 207 210 216 216 217 212 218 211 217 209
309 298 292 297 310 291 272 263 57 28 24 11 6 347 330 317 295 277 273 270 278 277 277 273 228 231 198 189 181 188 181 181 186 203 208 212 206 208 208 210 212 215 216 216 219 216 215 218 225
310 316 307 293 297 276 19 287 51 356 353 351 345 339 326 312 304 296 278 270 256 277 295 276 230 218 197 191 178 179 174 179 193 193 198 204 209 212 216 216 214 217 219 220 219 222 223 222 223
301 308 303 289 272 264 239 223 41 14 353 343 336 329 317 305 299 297 293 269 263 269 284 265 236 183 175 187 196 193 195 213 191 192 190 199 212 218 224 224 223 222 225 230 225 230 233 231 228
340 319 311 344 192 186 205 252 44 16 346 336 332 319 308 291 287 285 288 272 266 263 270 201 143 104 168 111 94 210 189 187 189 192 191 195 209 219 223 226 227 227 235 238 241 250 253 243 244
354 352 6 53 13 40 6 31 64 5 352 339 326 316 329 276 263 289 309 219 248 259 210 151 92 79 84 99 92 83 67 63 65 125 149 135 109 115 131 178 182 188 178 188 198 187 173 90 97
351 11 18 7 357 329 351 6 76 5 341 337 340 336 52 64 70 77 82 64 28 82 93 93 85 78 73 78 76 86 76 76 64 75 77 88 90 81 90 101 92 95 97 96 99 92 84 80 78
340 3 312 261 225 250 20 8 165 349 346 350 347 1 25 32 32 44 51 50 65 71 78 87 82 74 70 74 68 76 85 82 76 71 74 75 81 83 78 89 87 81 83 82 83 81 79 81 77
6 353 3 5 12 10 31 46 346 346 341 338 347 351 13 21 23 33 47 54 64 71 74 78 83 78 78 79 75 75 81 83 80 82 77 76 82 88 80 81 86 87 86 87 82 82 80 80 70
12 12 348 285 10 350 333 57 2 345 341 334 339 347 7 18 20 33 46 54 65 73 71 73 74 81 78 78 78 76 79 80 75 75 78 73 79 84 83 81 84 81 81 80 82 76 76 73 69
31 9 349 344 15 17 295 74 18 356 349 344 344 351 6 17 22 29 45 54 61 65 65 66 72 72 73 76 76 71 75 80 71 75 75 72 73 74 74 77 77 77 77 78 78 77 75 72 67